Hagerstown, MD

9:30 PM EDT on May 20, 2018 (GMT -0400)
Hagerstown Regional-Henson

Weather History for KHGR - October, 2013

Change the Weather History Date:

Tuesday, October 22, 2013

  Actual Average Record
Temperature  
Mean Temperature 55 °F 53 °F  
Max Temperature 59 °F 63 °F 79 °F (2015)
Min Temperature 50 °F 42 °F 33 °F (1997)
Degree Days  
Heating Degree Days 10 12  
Month to date heating degree days 115 204  
Since 1 July heating degree days 198 278  
Cooling Degree Days 0 0  
Month to date cooling degree days 44 9  
Year to date cooling degree days 1133 968  
Growing Degree Days 1 (Base 50)    
Moisture  
Dew Point 39 °F    
Average Humidity 62    
Maximum Humidity 83    
Minimum Humidity 40    
Precipitation  
Precipitation 0.00 in 0.08 in 0.24 in (2005)
Month to date precipitation 5.30 2.19  
Year to date precipitation 27.66 32.49  
Sea Level Pressure  
Sea Level Pressure 29.90 in    
Wind  
Wind Speed 7 mph (SW)    
Max Wind Speed 25 mph    
Max Gust Speed 33 mph    
Visibility 10 miles    
Events      
T = Trace of Precipitation, MM = Missing Value Source: NWS Daily Summary

Daily Weather History Graph

Daily Weather History Graph

Search for Another Location

Airport or City:

Astronomy

Oct. 22, 2013 Rise Set
Actual Time 7:28 AM EDT 6:21 PM EDT
Civil Twilight 7:01 AM EDT 6:48 PM EDT
Nautical Twilight 6:29 AM EDT 7:20 PM EDT
Astronomical Twilight 5:58 AM EDT 7:51 PM EDT
Moon 9:00 PM EDT (10/22) 10:54 AM EDT (10/22)
Length of Visible Light 11h 47m
Length of Day
10h 52m
Waning Gibbous, 87% of the Moon is Illuminated
Oct 22
Waning Gibbous
Oct 26
Last Quarter
Nov 3
New
Nov 10
First Quarter
Nov 17
Full

Hourly Weather History & Observations

Time (EDT) Temp. Windchill Dew Point Humidity Pressure Visibility Wind Dir Wind Speed Gust Speed Precip Events Conditions
12:53 AM 54.0 °F - 42.1 °F 64% 29.94 in 10.0 mi South 6.9 mph - N/A   Clear
1:53 AM 53.1 °F - 42.1 °F 66% 29.93 in 10.0 mi South 6.9 mph - N/A   Clear
2:53 AM 53.1 °F - 42.1 °F 66% 29.92 in 10.0 mi South 9.2 mph - N/A   Clear
3:53 AM 53.1 °F - 43.0 °F 69% 29.91 in 10.0 mi South 5.8 mph - N/A   Overcast
4:53 AM 53.1 °F - 44.1 °F 71% 29.89 in 10.0 mi South 5.8 mph - N/A   Overcast
5:53 AM 52.0 °F - 44.1 °F 74% 29.88 in 10.0 mi South 5.8 mph - N/A   Overcast
6:53 AM 52.0 °F - 45.0 °F 77% 29.87 in 10.0 mi SSE 6.9 mph - N/A   Mostly Cloudy
7:53 AM 51.1 °F - 45.0 °F 80% 29.87 in 10.0 mi South 4.6 mph - N/A   Clear
8:53 AM 52.0 °F - 46.0 °F 80% 29.90 in 10.0 mi SW 4.6 mph - N/A   Scattered Clouds
9:53 AM 53.1 °F - 46.0 °F 77% 29.92 in 10.0 mi South 3.5 mph - N/A   Mostly Cloudy
10:53 AM 57.0 °F - 44.1 °F 62% 29.91 in 10.0 mi WSW 4.6 mph - N/A   Scattered Clouds
11:53 AM 57.0 °F - 45.0 °F 64% 29.90 in 10.0 mi West 4.6 mph - N/A   Overcast
12:53 PM 55.9 °F - 45.0 °F 67% 29.90 in 10.0 mi NW 15.0 mph 19.6 mph N/A   Overcast
1:53 PM 55.9 °F - 42.1 °F 60% 29.89 in 10.0 mi NW 6.9 mph - N/A   Mostly Cloudy
2:53 PM 57.0 °F - 37.9 °F 49% 29.86 in 10.0 mi West 16.1 mph 25.3 mph N/A   Clear
3:53 PM 57.9 °F - 33.1 °F 39% 29.88 in 10.0 mi Variable 6.9 mph - N/A   Clear
4:53 PM 57.9 °F - 33.1 °F 39% 29.87 in 10.0 mi West 8.1 mph - N/A   Clear
5:53 PM 55.9 °F - 32.0 °F 40% 29.88 in 10.0 mi WSW 5.8 mph - N/A   Clear
6:53 PM 50.0 °F - 33.1 °F 52% 29.89 in 10.0 mi Calm Calm - N/A   Clear
7:53 PM 48.9 °F - 30.9 °F 50% 29.90 in 10.0 mi Calm Calm - N/A   Clear
8:53 PM 45.0 °F 43.5 °F 32.0 °F 60% 29.91 in 10.0 mi NNW 3.5 mph - N/A   Clear
9:53 PM 46.0 °F 43.1 °F 28.0 °F 50% 29.91 in 10.0 mi North 5.8 mph - N/A   Clear
10:53 PM 46.0 °F 43.9 °F 27.0 °F 47% 29.90 in 10.0 mi NNE 4.6 mph - N/A   Clear
11:53 PM 44.1 °F 42.5 °F 30.0 °F 58% 29.88 in 10.0 mi South 3.5 mph - N/A   Overcast